"Pseudo-MPEC" for P110LJ9

Created 2020 May 26 21:07:18 UT using Find_Orb

Click here for an explanation of pseudo-MPECs

 
 Astrometry: 
     P110LJ9  C2020 05 21eq_j;+s0RlUAstrometryG+k%SMA6f,+?Y^iVI:om0redacted;nF51
     P110LJ9  C2020 05 212MtvZf+'Lv-Y#(w9n)y3]VraKgT5BH!Iww)=)1iYrH]yPn\)[xglF51
     P110LJ9  C2020 05 21JNq8click\,4here+-]\^forgyAxCUJk8JEexplanationBr'L-ZF51
     P110LJ9 ^C2020 05 26.45918716 41 09.823-02 18 04.33   ~5QIq 21.90GVNEOCP568
     P110LJ9 ^C2020 05 26.46015116 41 09.729-02 18 04.94   ~5QIq 21.93GVNEOCP568
     P110LJ9 ^C2020 05 26.46109916 41 09.647-02 18 05.56   ~5QIq 21.86GVNEOCP568

Station data:
(568) Mauna Kea  (N19.826116 W155.472200)  US/Hawaii.
(F51) Pan-STARRS 1, Haleakala  (N20.707235 W156.255910)  US/Hawaii.
   Observers N. Primak, A. Schultz, S. Watters, J. Thiel, T. Goggia. Measurer
   PS1 Science Consortium. 1.8-m Ritchey-Chrétien + CCD.

Orbital elements:  P110LJ9
   Perihelion 2021 Aug 30.084609 +/- 269 TT =  2:01:50 (JD 2459456.584609)
Epoch 2020 May 26.0 TT = JDT 2458995.5   Earth MOID: 0.7654   AutoNEOCP
M 185.36962349 +/- 130              (J2000 ecliptic)
n   0.37873824 +/- 0.213            Peri.  331.24666 +/- 90
a   1.89195124 +/- 0.711            Node    89.11249 +/- 11
e   0.0818136 +/- 0.261             Incl.   25.53274 +/- 26
P   2.60/950.51d           H 19.8   G  0.15   U 11.7  SR
q 1.73716379 +/- 0.806    Q 2.04673868 +/- 29.3
From 6 observations 2020 May 21-26; mean residual 0".03
Residuals in arcseconds: 
200521 F51  .02+  .06-    200521 F51  .01+  .05+    200526 568  .05-  .01+    
200521 F51  .03-  .02+    200526 568  .01+  .01+    200526 568  .04+  .01-    

Ephemerides (geocentric):
Date (UTC) HH   RA              Dec         delta   r     elong  mag " sig PA
---- -- -- --  -------------   -----------  ------ ------ -----  --- ---- ---
2020 05 26 21  16 40 32.511   -02 22 25.92  1.0639 2.0461 160.1 22.1 20.8 148
2020 05 26 22  16 40 28.763   -02 22 52.61  1.0638 2.0461 160.2 22.1 23.3 148
2020 05 26 23  16 40 25.014   -02 23 19.33  1.0638 2.0461 160.2 22.1 25.7 147
2020 05 27 00  16 40 21.264   -02 23 46.09  1.0637 2.0461 160.2 22.1 28.2 147
2020 05 27 01  16 40 17.512   -02 24 12.87  1.0636 2.0461 160.2 22.1 30.8 146
2020 05 27 02  16 40 13.760   -02 24 39.69  1.0636 2.0461 160.2 22.1 33.4 146
2020 05 27 03  16 40 10.006   -02 25 06.53  1.0635 2.0461 160.3 22.1 36.0 146
2020 05 27 04  16 40 06.252   -02 25 33.41  1.0635 2.0461 160.3 22.1 38.6 146
2020 05 27 05  16 40 02.497   -02 26 00.31  1.0634 2.0461 160.3 22.1 41.3 146
2020 05 27 06  16 39 58.740   -02 26 27.25  1.0633 2.0461 160.3 22.1 44.0 145
2020 05 27 07  16 39 54.983   -02 26 54.21  1.0633 2.0460 160.3 22.1 46.8 145
2020 05 27 08  16 39 51.224   -02 27 21.21  1.0632 2.0460 160.3 22.1 49.6 145
2020 05 27 09  16 39 47.465   -02 27 48.24  1.0631 2.0460 160.4 22.1 52.4 145
2020 05 27 10  16 39 43.705   -02 28 15.30  1.0631 2.0460 160.4 22.1 55.3 145
2020 05 27 11  16 39 39.943   -02 28 42.38  1.0630 2.0460 160.4 22.1 58.2 145
2020 05 27 12  16 39 36.181   -02 29 09.50  1.0630 2.0460 160.4 22.1 61.1 145
2020 05 27 13  16 39 32.418   -02 29 36.65  1.0629 2.0460 160.4 22.1 64.1 145
2020 05 27 14  16 39 28.654   -02 30 03.83  1.0628 2.0460 160.4 22.1 67.1 145
2020 05 27 15  16 39 24.889   -02 30 31.04  1.0628 2.0460 160.4 22.1 70.2 145
2020 05 27 16  16 39 21.123   -02 30 58.27  1.0627 2.0460 160.5 22.1 73.3 144
2020 05 27 17  16 39 17.356   -02 31 25.54  1.0627 2.0460 160.5 22.1 76.4 144
2020 05 27 18  16 39 13.589   -02 31 52.84  1.0626 2.0460 160.5 22.1 79.5 144
2020 05 27 19  16 39 09.820   -02 32 20.17  1.0625 2.0460 160.5 22.1 82.7 144
2020 05 27 20  16 39 06.051   -02 32 47.53  1.0625 2.0460 160.5 22.1 86.0 144
2020 05 27 21  16 39 02.280   -02 33 14.92  1.0624 2.0460 160.5 22.1 89.2 144
2020 05 27 22  16 38 58.509   -02 33 42.34  1.0624 2.0460 160.6 22.1 92.5 144
2020 05 27 23  16 38 54.737   -02 34 09.79  1.0623 2.0460 160.6 22.1 95.9 144
2020 05 28 00  16 38 50.964   -02 34 37.27  1.0623 2.0460 160.6 22.1 99.2 144
2020 05 28 01  16 38 47.190   -02 35 04.78  1.0622 2.0460 160.6 22.1  103 144
2020 05 28 02  16 38 43.416   -02 35 32.31  1.0622 2.0460 160.6 22.1  106 144
2020 05 28 03  16 38 39.640   -02 35 59.88  1.0621 2.0460 160.6 22.1  110 144
2020 05 28 04  16 38 35.864   -02 36 27.48  1.0621 2.0460 160.6 22.1  113 144
2020 05 28 05  16 38 32.087   -02 36 55.11  1.0620 2.0460 160.7 22.1  117 144
2020 05 28 06  16 38 28.309   -02 37 22.77  1.0619 2.0460 160.7 22.1  120 144
2020 05 28 07  16 38 24.531   -02 37 50.46  1.0619 2.0460 160.7 22.1  124 144
2020 05 28 08  16 38 20.751   -02 38 18.18  1.0618 2.0460 160.7 22.1  128 144
2020 05 28 09  16 38 16.971   -02 38 45.92  1.0618 2.0459 160.7 22.1  131 144
2020 05 28 10  16 38 13.190   -02 39 13.70  1.0617 2.0459 160.7 22.1  135 144
2020 05 28 11  16 38 09.409   -02 39 41.51  1.0617 2.0459 160.7 22.1  139 144
2020 05 28 12  16 38 05.626   -02 40 09.34  1.0616 2.0459 160.7 22.1  143 144
2020 05 28 13  16 38 01.843   -02 40 37.21  1.0616 2.0459 160.8 22.1  146 144
2020 05 28 14  16 37 58.060   -02 41 05.11  1.0615 2.0459 160.8 22.1  150 143
2020 05 28 15  16 37 54.275   -02 41 33.03  1.0615 2.0459 160.8 22.1  154 143
2020 05 28 16  16 37 50.490   -02 42 00.99  1.0615 2.0459 160.8 22.1  158 143
2020 05 28 17  16 37 46.704   -02 42 28.97  1.0614 2.0459 160.8 22.1  162 143
2020 05 28 18  16 37 42.917   -02 42 56.99  1.0614 2.0459 160.8 22.1  166 143
2020 05 28 19  16 37 39.130   -02 43 25.03  1.0613 2.0459 160.8 22.1  170 143
2020 05 28 20  16 37 35.342   -02 43 53.10  1.0613 2.0459 160.8 22.1  174 143